Weather History for Key West, FL

Change the Weather History Date:

Thursday, March 28, 2013

  Actual Average Record
Temperature  
Mean Temperature 65 °F 74 °F  
Max Temperature 71 °F 79 °F 88 °F (1994)
Min Temperature 58 °F 69 °F 58 °F (2013)
Degree Days  
Heating Degree Days 0 0  
Month to date heating degree days 16 0  
Since 1 July heating degree days 28 66  
Cooling Degree Days 0 9  
Month to date cooling degree days 140 234  
Year to date cooling degree days 674 582  
Growing Degree Days 14 (Base 50)    
Moisture  
Dew Point 49 °F    
Average Humidity 60    
Maximum Humidity 73    
Minimum Humidity 47    
Precipitation  
Precipitation 0.00 in 0.06 in 1.10 in (2000)
Month to date precipitation 2.20 1.85  
Year to date precipitation 3.74 5.38  
Snow  
Snow 0.00 in - - ()
Month to date snowfall 0.0  
Since 1 July snowfall 0.0  
Snow Depth 0.00 in    
Sea Level Pressure  
Sea Level Pressure 30.22 in    
Wind  
Wind Speed 10 mph (NNE)    
Max Wind Speed 18 mph    
Max Gust Speed 24 mph    
Visibility 10 miles    
Events      
T = Trace of Precipitation, MM = Missing Value Source: NWS Daily Summary

Daily Weather History Graph

Daily Weather History Graph

Search for Another Location

Airport:

Trip Planner

Search our weather history database for the weather conditions in past years. The results will help you decide how hot, cold, wet, or windy it might be!

Date:

Astronomy

Mar. 28, 2013 Rise Set
Actual Time 7:22 AM EDT 7:41 PM EDT
Civil Twilight 6:59 AM EDT 8:04 PM EDT
Nautical Twilight 6:33 AM EDT 8:31 PM EDT
Astronomical Twilight 6:06 AM EDT 8:58 PM EDT
Moon 9:16 PM EDT (3/28) 8:01 AM EDT (3/28)
Length of Visible Light 13h 04m
Length of Day
12h 19m
Full, 98% of the Moon is Illuminated
Mar 28
Full
Apr 3
Last Quarter
Apr 10
New
Apr 18
First Quarter
Apr 25
Full

Hourly Weather History & Observations

Time (EDT) Temp. Dew Point Humidity Pressure Visibility Wind Dir Wind Speed Gust Speed Precip Events Conditions
12:53 AM 62.1 °F 50.0 °F 65% 30.22 in 10.0 mi NNE 10.4 mph - N/A   Clear
1:53 AM 62.1 °F 48.0 °F 60% 30.22 in 10.0 mi NNE 10.4 mph - N/A   Clear
2:53 AM 62.1 °F 46.0 °F 56% 30.21 in 10.0 mi NNE 9.2 mph - N/A   Clear
3:53 AM 62.1 °F 45.0 °F 53% 30.19 in 10.0 mi NNE 6.9 mph - N/A   Mostly Cloudy
4:53 AM 59.0 °F 46.0 °F 62% 30.19 in 10.0 mi NNE 11.5 mph - N/A   Clear
5:53 AM 60.1 °F 46.0 °F 60% 30.18 in 10.0 mi NNE 9.2 mph 18.4 mph N/A   Clear
6:53 AM 61.0 °F 46.9 °F 60% 30.20 in 10.0 mi NNE 8.1 mph - N/A   Scattered Clouds
7:53 AM 61.0 °F 46.9 °F 60% 30.21 in 10.0 mi NE 8.1 mph - N/A   Clear
8:53 AM 63.0 °F 48.0 °F 58% 30.23 in 10.0 mi NNE 13.8 mph 19.6 mph N/A   Scattered Clouds
9:53 AM 64.0 °F 48.0 °F 56% 30.25 in 10.0 mi NNE 15.0 mph 21.9 mph N/A   Partly Cloudy
10:53 AM 64.9 °F 48.0 °F 54% 30.27 in 10.0 mi NE 15.0 mph - N/A   Clear
11:53 AM 66.9 °F 48.0 °F 51% 30.26 in 10.0 mi NNE 13.8 mph - N/A   Clear
12:53 PM 69.1 °F 48.9 °F 49% 30.25 in 10.0 mi NNE 11.5 mph 21.9 mph N/A   Clear
1:53 PM 69.1 °F 50.0 °F 51% 30.23 in 10.0 mi NNE 12.7 mph 20.7 mph N/A   Partly Cloudy
2:53 PM 69.1 °F 48.9 °F 49% 30.21 in 10.0 mi NNE 15.0 mph 21.9 mph N/A   Clear
3:53 PM 70.0 °F 48.9 °F 47% 30.19 in 10.0 mi North 15.0 mph - N/A   Partly Cloudy
4:53 PM 70.0 °F 48.9 °F 47% 30.17 in 10.0 mi North 12.7 mph - N/A   Clear
5:53 PM 70.0 °F 50.0 °F 49% 30.18 in 10.0 mi NNE 9.2 mph - N/A   Clear
6:53 PM 69.1 °F 48.9 °F 49% 30.19 in 10.0 mi North 8.1 mph - N/A   Clear
7:53 PM 66.9 °F 50.0 °F 54% 30.20 in 10.0 mi North 6.9 mph - N/A   Clear
8:53 PM 66.9 °F 51.1 °F 57% 30.22 in 10.0 mi North 8.1 mph - N/A   Mostly Cloudy
9:53 PM 66.0 °F 53.1 °F 63% 30.24 in 10.0 mi ENE 3.5 mph - N/A   Clear
10:53 PM 64.9 °F 55.0 °F 70% 30.25 in 10.0 mi NNE 5.8 mph - N/A   Clear
11:53 PM 64.9 °F 55.0 °F 70% 30.25 in 10.0 mi NNE 6.9 mph - N/A   Clear